TimeEDT,TemperatureF,Dew PointF,Humidity,Sea Level PressureIn,VisibilityMPH,Wind Direction,Wind SpeedMPH,Gust SpeedMPH,PrecipitationIn,Events,Conditions,WindDirDegrees,DateUTC
12:54 AM,62.1,57.9,86,29.86,10.0,WNW,5.8,-,N/A,,Partly Cloudy,290,2012-09-10 04:54:00
1:54 AM,61.0,57.0,87,29.85,10.0,NNW,3.5,-,N/A,,Partly Cloudy,330,2012-09-10 05:54:00
2:54 AM,61.0,55.9,83,29.85,10.0,NNW,5.8,-,N/A,,Clear,330,2012-09-10 06:54:00
3:54 AM,59.0,54.0,83,29.86,10.0,NW,11.5,-,N/A,,Partly Cloudy,320,2012-09-10 07:54:00
4:54 AM,59.0,52.0,78,29.87,10.0,NNW,10.4,-,N/A,,Mostly Cloudy,330,2012-09-10 08:54:00
5:54 AM,59.0,50.0,72,29.88,10.0,NNW,10.4,-,N/A,,Mostly Cloudy,340,2012-09-10 09:54:00
6:54 AM,60.1,48.0,64,29.90,10.0,North,12.7,18.4,N/A,,Mostly Cloudy,350,2012-09-10 10:54:00
7:54 AM,61.0,48.0,62,29.92,10.0,NNW,10.4,19.6,N/A,,Mostly Cloudy,330,2012-09-10 11:54:00
8:54 AM,62.1,46.9,58,29.93,10.0,WNW,9.2,17.3,N/A,,Scattered Clouds,300,2012-09-10 12:54:00
9:54 AM,64.0,46.9,54,29.94,10.0,North,11.5,-,N/A,,Partly Cloudy,360,2012-09-10 13:54:00
10:54 AM,66.9,45.0,45,29.93,10.0,North,16.1,23.0,N/A,,Partly Cloudy,10,2012-09-10 14:54:00
11:54 AM,66.9,46.9,49,29.93,10.0,NW,15.0,20.7,N/A,,Mostly Cloudy,310,2012-09-10 15:54:00
12:54 PM,66.0,45.0,47,29.92,10.0,NW,15.0,24.2,N/A,,Overcast,320,2012-09-10 16:54:00
1:54 PM,66.0,46.0,48,29.91,10.0,NNW,19.6,24.2,N/A,,Mostly Cloudy,330,2012-09-10 17:54:00
2:54 PM,68.0,45.0,43,29.91,10.0,NW,13.8,23.0,N/A,,Mostly Cloudy,310,2012-09-10 18:54:00
3:54 PM,66.9,44.1,44,29.91,10.0,NNW,18.4,27.6,N/A,,Mostly Cloudy,330,2012-09-10 19:54:00
4:54 PM,66.0,44.1,45,29.93,10.0,NNW,17.3,27.6,N/A,,Mostly Cloudy,340,2012-09-10 20:54:00
5:54 PM,66.0,43.0,43,29.95,10.0,North,13.8,24.2,N/A,,Scattered Clouds,350,2012-09-10 21:54:00
6:54 PM,64.0,41.0,43,29.97,10.0,NNW,16.1,-,N/A,,Partly Cloudy,330,2012-09-10 22:54:00
7:54 PM,62.1,41.0,46,30.00,10.0,NNW,15.0,20.7,N/A,,Partly Cloudy,340,2012-09-10 23:54:00
8:54 PM,60.1,41.0,49,30.02,10.0,NNW,11.5,19.6,N/A,,Partly Cloudy,340,2012-09-11 00:54:00
9:54 PM,59.0,41.0,51,30.04,10.0,NW,13.8,-,N/A,,Partly Cloudy,320,2012-09-11 01:54:00
10:54 PM,57.9,42.1,56,30.04,10.0,NW,10.4,-,N/A,,Clear,320,2012-09-11 02:54:00
11:54 PM,57.0,42.1,57,30.04,10.0,NW,11.5,-,N/A,,Clear,320,2012-09-11 03:54:00